Flight Track Log - Related Links

Times and Time Zones

All times are in EDT time to prevent confusion due to time zone crossing. See the UPS805 flight status page for this flight to view local times or setup timezone preferences in your user account.

Time Position Orientation Groundspeed Altitude Reporting Facility
EDT Latitude Longitude Course Direction KTS MPH feet Rate Location/Type
Mon 11:59:44 PM 39.8777 -104.6259 87° East 182 209 5,700  Level FlightAware ADS-B
Tue 12:00:00 AM 39.8790 -104.6103 82° East 187 215 6,300 2,368 Climbing FlightAware ADS-B
Tue 12:00:22 AM 39.8819 -104.5801 84° East 194 223 7,200 2,512 Climbing FlightAware ADS-B (KEIK)
Tue 12:00:43 AM 39.8834 -104.5581 82° East 195 224 8,100 2,211 Climbing FlightAware ADS-B
Tue 12:01:00 AM 39.8871 -104.5382 73° East 203 234 8,600 1,532 Climbing FlightAware ADS-B
Tue 12:01:30 AM 39.8937 -104.5037 77° East 237 273 9,300 1,733 Climbing FlightAware ADS-B
Tue 12:01:45 AM 39.8980 -104.4785 77° East 242 278 9,900 2,264 Climbing FlightAware ADS-B
Tue 12:02:23 AM 39.9084 -104.4211 77° East 258 297 11,300 1,974 Climbing FlightAware ADS-B (KEIK)
Tue 12:03:01 AM 39.9191 -104.3615 77° East 277 319 12,400 2,028 Climbing FlightAware ADS-B (KEIK)
Tue 12:03:34 AM 39.9283 -104.3075 77° East 297 342 13,700 1,826 Climbing FlightAware ADS-B (KEIK)
Tue 12:04:10 AM 39.9402 -104.2397 77° East 345 397 14,500 1,343 Climbing FlightAware ADS-B (KEIK)
Tue 12:04:41 AM 39.9521 -104.1723 77° East 383 441 15,200 1,280 Climbing FlightAware ADS-B (KEIK)
Tue 12:05:25 AM 39.9697 -104.0731 77° East 431 496 16,100 1,760 Climbing FlightAware ADS-B (KEIK)
Tue 12:05:56 AM 39.9842 -103.9907 77° East 439 505 17,400 2,783 Climbing FlightAware ADS-B (KEIK)
Tue 12:06:34 AM 40.0009 -103.8946 77° East 442 509 19,300 2,571 Climbing FlightAware ADS-B (KEIK)
Tue 12:07:13 AM 40.0195 -103.7873 77° East 453 521 20,700 2,203 Climbing FlightAware ADS-B (KEIK)
Tue 12:07:53 AM 40.0365 -103.6868 78° East 462 532 22,200 2,154 Climbing FlightAware ADS-B (KEIK)
Tue 12:08:31 AM 40.0548 -103.5747 78° East 473 544 23,500 1,923 Climbing FlightAware ADS-B (KEIK)
Tue 12:09:11 AM 40.0714 -103.4726 78° East 482 555 24,700 1,784 Climbing FlightAware ADS-B (KEIK)
Tue 12:09:45 AM 40.0879 -103.3707 78° East 489 563 25,700 1,516 Climbing FlightAware ADS-B (KEIK)
Tue 12:10:42 AM 40.0852 -103.3875 78° East 505 581 27,000 1,647 Climbing FlightAware ADS-B
Tue 12:11:27 AM 40.0683 -103.4917 78° East 504 580 28,500 1,887 Climbing FlightAware ADS-B
Tue 12:13:56 AM 40.2059 -102.6240 79° East 489 563 33,100 1,724 Climbing FlightAware ADS-B
Tue 12:14:28 AM 40.2196 -102.5353 79° East 489 563 33,700 1,254 Climbing FlightAware ADS-B
Tue 12:15:03 AM 40.2354 -102.4322 79° East 487 560 34,500 1,091 Climbing FlightAware ADS-B (KEIK)
Tue 12:15:34 AM 40.2473 -102.3542 79° East 492 566 34,900 429 Climbing FlightAware ADS-B (KEIK)
Tue 12:16:13 AM 40.2663 -102.2288 79° East 501 577 35,000 67 Climbing FlightAware ADS-B (KEIK)
Tue 12:17:04 AM 40.2893 -102.0752 79° East 501 577 35,000  Level FlightAware ADS-B (KEIK)
Tue 12:17:54 AM 40.3112 -101.9273 79° East 500 575 35,000  Level FlightAware ADS-B (KEIK)
Tue 12:18:25 AM 40.3241 -101.8395 79° East 499 574 35,000  Level FlightAware ADS-B (KEIK)
Tue 12:18:55 AM 40.3355 -101.7616 79° East 499 574 35,000  Level FlightAware ADS-B
Tue 12:19:26 AM 40.3512 -101.6541 79° East 498 573 35,000  Level FlightAware ADS-B (KEIK)
Tue 12:20:13 AM 40.3706 -101.5204 79° East 495 570 35,000  Level FlightAware ADS-B
Tue 12:20:44 AM 40.3826 -101.4364 79° East 490 564 35,000  Level FlightAware ADS-B
Tue 12:21:14 AM 40.3958 -101.3436 79° East 487 560 35,000  Level FlightAware ADS-B
Tue 12:21:44 AM 40.4085 -101.2548 80° East 487 560 35,000  Level FlightAware ADS-B
Tue 12:22:30 AM 40.4277 -101.1197 80° East 491 565 35,000  Level FlightAware ADS-B
Tue 12:23:23 AM 40.4488 -100.9694 80° East 493 567 35,000  Level FlightAware ADS-B (KEIK)
Tue 12:23:39 AM 40.4539 -100.9266 81° East 494 568 35,000  Level FlightAware ADS-B
Tue 12:23:53 AM 40.4579 -100.8811 86° East 495 570 35,000  Level FlightAware ADS-B
Tue 12:25:29 AM 40.4722 -100.6005 86° East 499 574 35,000  Level FlightAware ADS-B
Tue 12:26:16 AM 40.4793 -100.4572 86° East 498 573 35,000  Level FlightAware ADS-B
Tue 12:27:01 AM 40.4862 -100.3145 86° East 494 568 35,000  Level FlightAware ADS-B
Tue 12:27:41 AM 40.4919 -100.1949 86° East 495 570 35,000  Level FlightAware ADS-B
Tue 12:29:01 AM 40.4938 -99.9530 95° East 510 587 35,000  Level FlightAware ADS-B
Tue 12:31:00 AM 40.4424 -99.5825 101° East 510 587 35,000  Level FlightAware ADS-B
Tue 12:31:31 AM 40.4291 -99.4897 101° East 511 588 35,000  Level FlightAware ADS-B
Tue 12:32:01 AM 40.4159 -99.3974 101° East 512 589 35,000  Level FlightAware ADS-B
Tue 12:32:31 AM 40.4025 -99.3049 101° East 510 587 35,000  Level FlightAware ADS-B
Tue 12:33:01 AM 40.3893 -99.2142 101° East 509 586 35,000  Level FlightAware ADS-B
Tue 12:33:38 AM 40.3728 -99.1021 101° East 508 585 35,000  Level FlightAware ADS-B
Tue 12:34:09 AM 40.3594 -99.0110 101° East 508 585 35,000  Level FlightAware ADS-B
Tue 12:34:39 AM 40.3460 -98.9206 101° East 508 585 35,000  Level FlightAware ADS-B
Tue 12:35:09 AM 40.3325 -98.8302 101° East 509 586 35,000  Level FlightAware ADS-B
Tue 12:35:39 AM 40.3189 -98.7390 101° East 509 586 35,000  Level FlightAware ADS-B
Tue 12:36:09 AM 40.3051 -98.6474 101° East 510 587 35,000  Level FlightAware ADS-B
Tue 12:36:40 AM 40.2909 -98.5542 101° East 510 587 35,000  Level FlightAware ADS-B
Tue 12:37:18 AM 40.2736 -98.4414 101° East 509 586 35,000  Level FlightAware ADS-B
Tue 12:38:01 AM 40.2535 -98.3101 101° East 509 586 35,000  Level FlightAware ADS-B
Tue 12:38:31 AM 40.2396 -98.2198 101° East 509 586 35,000  Level FlightAware ADS-B
Tue 12:39:01 AM 40.2254 -98.1289 102° East 508 585 35,000  Level FlightAware ADS-B
Tue 12:39:31 AM 40.2111 -98.0383 102° East 509 586 35,000  Level FlightAware ADS-B
Tue 12:40:11 AM 40.1922 -97.9182 102° East 508 585 35,000  Level FlightAware ADS-B
Tue 12:40:42 AM 40.1776 -97.8264 102° East 508 585 35,000  Level FlightAware ADS-B
Tue 12:41:12 AM 40.1632 -97.7355 102° East 508 585 35,000  Level FlightAware ADS-B
Tue 12:41:43 AM 40.1487 -97.6447 102° East 509 586 35,000  Level FlightAware ADS-B
Tue 12:42:13 AM 40.1342 -97.5544 102° East 507 583 35,000  Level FlightAware ADS-B
Tue 12:42:43 AM 40.1195 -97.4638 102° East 505 581 35,000  Level FlightAware ADS-B
Tue 12:43:14 AM 40.1048 -97.3735 102° East 502 578 35,000  Level FlightAware ADS-B
Tue 12:43:44 AM 40.0903 -97.2849 102° East 499 574 35,000  Level FlightAware ADS-B
Tue 12:44:14 AM 40.0755 -97.1948 102° East 498 573 35,000  Level FlightAware ADS-B
Tue 12:44:45 AM 40.0608 -97.1063 102° East 497 572 35,000  Level FlightAware ADS-B
Tue 12:45:15 AM 40.0458 -97.0161 102° East 499 574 35,000  Level FlightAware ADS-B
Tue 12:45:46 AM 40.0311 -96.9278 102° East 499 574 35,000  Level FlightAware ADS-B
Tue 12:46:16 AM 40.0161 -96.8381 102° East 500 575 35,000  Level FlightAware ADS-B
Tue 12:46:46 AM 40.0012 -96.7499 102° East 500 575 35,000  Level FlightAware ADS-B
Tue 12:47:17 AM 39.9862 -96.6608 103° East 499 574 35,000  Level FlightAware ADS-B
Tue 12:47:47 AM 39.9711 -96.5722 103° East 499 574 35,000  Level FlightAware ADS-B
Tue 12:48:15 AM 39.9567 -96.4884 103° East 499 574 35,000  Level FlightAware ADS-B
Tue 12:48:46 AM 39.9415 -96.4007 103° East 493 567 35,000  Level FlightAware ADS-B
Tue 12:49:16 AM 39.9262 -96.3126 103° East 489 563 35,000  Level FlightAware ADS-B
Tue 12:49:46 AM 39.9112 -96.2257 103° East 488 562 35,000  Level FlightAware ADS-B
Tue 12:50:17 AM 39.8961 -96.1385 103° East 487 560 35,000  Level FlightAware ADS-B
Tue 12:50:45 AM 39.8820 -96.0578 103° East 488 562 35,000  Level FlightAware ADS-B
Tue 12:51:16 AM 39.8665 -95.9699 103° East 488 562 35,000  Level FlightAware ADS-B
Tue 12:51:49 AM 39.8499 -95.8762 103° East 488 562 35,000  Level FlightAware ADS-B
Tue 12:52:19 AM 39.8346 -95.7899 103° East 489 563 35,000  Level FlightAware ADS-B
Tue 12:52:49 AM 39.8192 -95.7037 103° East 490 564 35,000  Level FlightAware ADS-B
Tue 12:53:20 AM 39.8034 -95.6157 103° East 490 564 35,000  Level FlightAware ADS-B
Tue 12:53:51 AM 39.7876 -95.5278 103° East 490 564 35,000  Level FlightAware ADS-B
Tue 12:54:22 AM 39.7714 -95.4385 103° East 493 567 35,000  Level FlightAware ADS-B
Tue 12:54:54 AM 39.7547 -95.3469 103° East 497 572 35,000  Level FlightAware ADS-B
Tue 12:55:25 AM 39.7381 -95.2562 103° East 495 570 35,000  Level FlightAware ADS-B
Tue 12:55:55 AM 39.7220 -95.1688 103° East 493 567 35,000  Level FlightAware ADS-B
Tue 12:56:27 AM 39.7054 -95.0785 103° East 495 570 35,000  Level FlightAware ADS-B
Tue 12:56:59 AM 39.6880 -94.9843 103° East 496 571 35,000  Level FlightAware ADS-B
Tue 12:57:32 AM 39.6703 -94.8887 104° East 500 575 35,000  Level FlightAware ADS-B
Tue 12:58:03 AM 39.6536 -94.7990 104° East 503 579 35,000  Level FlightAware ADS-B
Tue 12:58:34 AM 39.6366 -94.7088 104° East 504 580 35,000  Level FlightAware ADS-B
Tue 12:59:04 AM 39.6199 -94.6205 104° East 501 577 35,000  Level FlightAware ADS-B
Tue 12:59:34 AM 39.6034 -94.5333 104° East 498 573 35,000  Level FlightAware ADS-B
Tue 01:00:05 AM 39.5866 -94.4454 104° East 497 572 35,000  Level FlightAware ADS-B
Tue 01:00:35 AM 39.5699 -94.3585 104° East 496 571 35,000  Level FlightAware ADS-B
Tue 01:01:05 AM 39.5532 -94.2720 104° East 495 570 35,000  Level FlightAware ADS-B
Tue 01:01:35 AM 39.5366 -94.1859 104° East 495 570 35,000  Level FlightAware ADS-B
Tue 01:02:05 AM 39.5200 -94.0999 104° East 495 570 35,000  Level FlightAware ADS-B
Tue 01:02:36 AM 39.5030 -94.0125 104° East 494 568 35,000  Level FlightAware ADS-B
Tue 01:03:06 AM 39.4861 -93.9271 105° East 484 557 35,000  Level FlightAware ADS-B
Tue 01:03:36 AM 39.4691 -93.8437 105° East 478 550 35,000  Level FlightAware ADS-B
Tue 01:04:08 AM 39.4514 -93.7560 105° East 478 550 35,000  Level FlightAware ADS-B
Tue 01:04:38 AM 39.4346 -93.6723 104° East 473 544 35,000  Level FlightAware ADS-B
Tue 01:05:08 AM 39.4181 -93.5904 104° East 472 543 35,000  Level FlightAware ADS-B
Tue 01:05:39 AM 39.4015 -93.5084 105° East 469 540 35,000  Level FlightAware ADS-B
Tue 01:07:58 AM 39.3230 -93.1270 105° East 479 551 35,000  Level FlightAware ADS-B (EGNC / CAX)
Tue 01:08:31 AM 39.3072 -93.0508 105° East 475 547 35,000  Level Kansas City Center
Tue 01:09:31 AM 39.2731 -92.8875 105° East 476 548 35,000  Level Kansas City Center
Tue 01:10:33 AM 39.2369 -92.7169 105° East 477 549 35,000  Level Kansas City Center
Tue 01:11:35 AM 39.2003 -92.5436 105° East 478 550 35,000  Level Kansas City Center
Tue 01:12:35 AM 39.1650 -92.3797 105° East 481 554 35,000  Level Kansas City Center
Tue 01:13:35 AM 39.1289 -92.2106 105° East 484 557 35,000  Level Kansas City Center
Tue 01:14:33 AM 39.0919 -92.0417 106° East 485 558 35,000  Level Kansas City Center
Tue 01:15:36 AM 39.0547 -91.8722 106° East 487 560 35,000  Level Kansas City Center
Tue 01:16:35 AM 39.0172 -91.7019 106° East 489 563 35,000  Level Kansas City Center
Tue 01:17:36 AM 38.9844 -91.5531 106° East 491 565 35,000  Level Kansas City Center
Tue 01:18:35 AM 38.9467 -91.3850 106° East 491 565 35,000  Level Kansas City Center
Tue 01:19:36 AM 38.9083 -91.2156 106° East 494 568 35,000  Level Kansas City Center
Tue 01:20:38 AM 38.8694 -91.0450 106° East 496 571 35,000  Level Kansas City Center
Tue 01:21:35 AM 38.8306 -90.8753 106° East 496 571 35,000  Level Kansas City Center
Tue 01:22:37 AM 38.7858 -90.6811 106° East 496 571 35,000  Level Kansas City Center
Tue 01:23:37 AM 38.7494 -90.5250 107° East 496 571 35,000  Level Kansas City Center
Tue 01:24:38 AM 38.7072 -90.3450 107° East 497 572 35,000  Level Kansas City Center
Tue 01:25:39 AM 38.6722 -90.1967 107° East 498 573 35,000  Level Kansas City Center
Tue 01:26:39 AM 38.6394 -90.0083 103° East 502 578 35,000  Level Kansas City Center
Tue 01:27:38 AM 38.6222 -89.8342 97° East 500 575 35,000  Level Kansas City Center
Tue 01:28:41 AM 38.6039 -89.6575 98° East 499 574 35,000  Level Kansas City Center
Tue 01:29:41 AM 38.5853 -89.4819 98° East 500 575 35,000  Level Kansas City Center
Tue 01:30:41 AM 38.5667 -89.3072 98° East 500 575 35,000  Level Kansas City Center
Tue 01:31:42 AM 38.5475 -89.1294 98° East 502 578 35,000  Level Kansas City Center
Tue 01:32:41 AM 38.5192 -88.9292 100° East 505 581 35,000  Level Kansas City Center
Tue 01:33:39 AM 38.4861 -88.7567 104° East 503 579 35,000  Level Kansas City Center
Tue 01:34:41 AM 38.4572 -88.6058 104° East 502 578 35,000  Level Kansas City Center
Tue 01:35:43 AM 38.4278 -88.4325 102° East 501 577 35,000  Level Kansas City Center
Tue 01:36:41 AM 38.4117 -88.2550 97° East 502 578 35,000  Level Kansas City Center
Tue 01:37:41 AM 38.3947 -88.0781 97° East 502 578 35,000  Level Kansas City Center
Tue 01:38:41 AM 38.3772 -87.9008 97° East 502 578 35,000 -1,415 Level Kansas City Center
Tue 01:39:44 AM 38.3592 -87.7247 97° East 501 577 32,100 -3,220 Descending Kansas City Center
Tue 01:40:44 AM 38.3414 -87.5478 97° East 502 578 28,400 -3,551 Descending Kansas City Center
Tue 01:42:11 AM 38.3131 -87.2750 97° East 480 552 23,400 -3,184 Descending Indianapolis Center
Tue 01:43:11 AM 38.2964 -87.1172 98° East 458 527 20,600 -2,331 Descending Indianapolis Center
Tue 01:44:12 AM 38.2808 -86.9708 98° East 441 507 18,700 -2,529 Descending Indianapolis Center
Tue 01:45:12 AM 38.2644 -86.8217 98° East 428 493 15,500 -3,050 Descending Indianapolis Center
Tue 01:46:12 AM 38.2483 -86.6744 98° East 422 486 12,600 -1,390 Descending Indianapolis Center
Tue 01:52:15 AM 38.3263 -85.9913 71° East 292 336 5,700 -1,169 Descending FlightAware ADS-B
Tue 01:52:37 AM 38.3365 -85.9532 72° East 289 333 5,100 -1,459 Descending FlightAware ADS-B
Tue 01:52:52 AM 38.3428 -85.9290 72° East 288 331 4,800 -1,105 Descending FlightAware ADS-B
Tue 01:53:15 AM 38.3524 -85.8919 72° East 277 319 4,400 -1,102 Descending FlightAware ADS-B
Tue 01:53:41 AM 38.3626 -85.8542 71° East 260 299 3,900 -1,200 Descending FlightAware ADS-B
Tue 01:54:05 AM 38.3681 -85.8196 91° East 250 288 3,400 -1,167 Descending FlightAware ADS-B
Tue 01:54:17 AM 38.3646 -85.8065 123° Southeast 242 278 3,200 -1,059 Descending FlightAware ADS-B
Tue 01:54:22 AM 38.3591 -85.7975 131° Southeast 238 274 3,100 -105 Descending FlightAware ADS-B
Tue 01:55:14 AM 38.3200 -85.7761 131° Southeast 249 287 3,100 -482 Level Indianapolis Center
Tue 01:56:14 AM 38.2661 -85.7594 166° South 217 250 2,200 -900 Descending Indianapolis Center
Tue 01:59:00 AM 38.1741 -85.7365 130° Southeast  Level Estimated

Login

Don't have an account? Register now (free) for customized features, flight alerts, and more!